LNICK ENNO-ENTO

Flight info

Callsign LNICK
Flight time 0h 19m
Altitude 5000
Route TOR
Aircraft BN2P/L-SFG/C

Departure

Time 2026-05-05 18:24
Airport Notodden Airport (ENNO)

Arrival

Time 2026-05-05 18:43
Airport Sandefjord Airport, Torp (ENTO)
Time Latitude Longitude Altitude Speed Heading
2026-05-05 18:09 59.56490 9.21777 37 ft 0 kts 35°
2026-05-05 18:15 59.56493 9.21781 37 ft 0 kts 36°
2026-05-05 18:22 59.56485 9.21827 37 ft 8 kts 131°
2026-05-05 18:23 59.56421 9.21858 37 ft 12 kts 213°
2026-05-05 18:23 59.56356 9.21771 37 ft 5 kts 193°
2026-05-05 18:23 59.56338 9.21789 37 ft 0 kts 127°
2026-05-05 18:24 59.56168 9.22214 104 ft 68 kts 131°
2026-05-05 18:24 59.55841 9.22935 501 ft 72 kts 127°
2026-05-05 18:24 59.55554 9.23737 889 ft 76 kts 127°
2026-05-05 18:24 59.55236 9.24580 1292 ft 79 kts 124°
2026-05-05 18:25 59.54927 9.25465 1698 ft 81 kts 123°
2026-05-05 18:25 59.54716 9.26067 1958 ft 82 kts 122°
2026-05-05 18:25 59.54253 9.27249 2492 ft 84 kts 135°
2026-05-05 18:25 59.53780 9.27912 2881 ft 85 kts 143°
2026-05-05 18:26 59.53312 9.28624 3265 ft 87 kts 144°
2026-05-05 18:26 59.52834 9.29352 3651 ft 89 kts 143°
2026-05-05 18:26 59.52354 9.30084 4032 ft 89 kts 143°
2026-05-05 18:26 59.51865 9.30835 4421 ft 89 kts 143°
2026-05-05 18:27 59.51389 9.31566 4801 ft 88 kts 143°
2026-05-05 18:27 59.50909 9.32308 5170 ft 90 kts 142°
2026-05-05 18:27 59.50380 9.33128 5410 ft 104 kts 142°
2026-05-05 18:27 59.49788 9.34049 5653 ft 112 kts 142°
2026-05-05 18:28 59.48407 9.36193 5914 ft 146 kts 141°
2026-05-05 18:28 59.47582 9.37467 5921 ft 156 kts 141°
2026-05-05 18:28 59.46713 9.38811 5919 ft 160 kts 141°
2026-05-05 18:29 59.45836 9.40171 5918 ft 160 kts 141°
2026-05-05 18:29 59.44978 9.41494 5917 ft 156 kts 141°
2026-05-05 18:29 59.44136 9.42795 5915 ft 152 kts 141°
2026-05-05 18:29 59.43306 9.44073 5916 ft 151 kts 141°
2026-05-05 18:30 59.42478 9.45351 5916 ft 150 kts 141°
2026-05-05 18:30 59.41656 9.46617 5916 ft 151 kts 141°
2026-05-05 18:30 59.40828 9.47885 5918 ft 151 kts 141°
2026-05-05 18:30 59.40002 9.49157 5919 ft 151 kts 141°
2026-05-05 18:31 59.39180 9.50424 5918 ft 151 kts 141°
2026-05-05 18:31 59.38347 9.51717 5918 ft 151 kts 141°
2026-05-05 18:31 59.37524 9.52999 5920 ft 151 kts 141°
2026-05-05 18:31 59.36708 9.54273 5919 ft 151 kts 141°
2026-05-05 18:32 59.35882 9.55558 5918 ft 151 kts 141°
2026-05-05 18:32 59.35060 9.56838 5919 ft 151 kts 141°
2026-05-05 18:32 59.34230 9.58124 5918 ft 151 kts 141°
2026-05-05 18:32 59.33411 9.59390 5920 ft 150 kts 141°
2026-05-05 18:33 59.32590 9.60662 5922 ft 150 kts 141°
2026-05-05 18:33 59.31770 9.61926 5925 ft 150 kts 141°
2026-05-05 18:33 59.30943 9.63197 5926 ft 150 kts 141°
2026-05-05 18:33 59.30122 9.64462 5928 ft 150 kts 141°
2026-05-05 18:34 59.29303 9.65732 5927 ft 150 kts 142°
2026-05-05 18:34 59.28486 9.67001 5928 ft 150 kts 142°
2026-05-05 18:34 59.27655 9.68293 5929 ft 150 kts 142°
2026-05-05 18:34 59.26904 9.69682 5928 ft 150 kts 121°
2026-05-05 18:35 59.26608 9.71615 5936 ft 148 kts 101°
2026-05-05 18:35 59.26320 9.73604 5728 ft 155 kts 105°
2026-05-05 18:35 59.26002 9.75592 5579 ft 154 kts 105°
2026-05-05 18:35 59.25695 9.77599 5424 ft 154 kts 104°
2026-05-05 18:36 59.25394 9.79614 5266 ft 153 kts 104°
2026-05-05 18:36 59.25103 9.81600 5113 ft 153 kts 104°
2026-05-05 18:36 59.24815 9.83580 4965 ft 152 kts 103°
2026-05-05 18:36 59.24533 9.85529 4930 ft 146 kts 103°
2026-05-05 18:37 59.24261 9.87414 4928 ft 141 kts 103°
2026-05-05 18:37 59.23997 9.89243 4928 ft 139 kts 103°
2026-05-05 18:37 59.23734 9.91069 4927 ft 138 kts 103°
2026-05-05 18:37 59.23472 9.92888 4927 ft 138 kts 103°
2026-05-05 18:38 59.23212 9.94690 4927 ft 138 kts 103°
2026-05-05 18:38 59.23150 9.96513 4929 ft 135 kts 86°
2026-05-05 18:38 59.23178 9.98359 4929 ft 136 kts 85°
2026-05-05 18:38 59.23167 10.00220 4937 ft 136 kts 92°
2026-05-05 18:39 59.22980 10.02066 4856 ft 143 kts 105°
2026-05-05 18:39 59.22636 10.03904 4754 ft 145 kts 110°
2026-05-05 18:39 59.22254 10.05727 4669 ft 145 kts 111°
2026-05-05 18:39 59.21857 10.07564 4553 ft 147 kts 112°
2026-05-05 18:40 59.21450 10.09366 4459 ft 147 kts 112°
2026-05-05 18:40 59.21046 10.11169 4306 ft 143 kts 111°
2026-05-05 18:40 59.20649 10.12978 4128 ft 144 kts 111°
2026-05-05 18:40 59.20261 10.14770 3949 ft 143 kts 111°
2026-05-05 18:41 59.19872 10.16507 3740 ft 140 kts 112°
2026-05-05 18:41 59.19499 10.18243 3499 ft 134 kts 100°
2026-05-05 18:41 59.19628 10.19911 2977 ft 123 kts 54°
2026-05-05 18:41 59.20153 10.21094 2480 ft 112 kts 39°
2026-05-05 18:42 59.20744 10.22078 1927 ft 111 kts 41°
2026-05-05 18:42 59.21176 10.23224 1587 ft 103 kts 68°
2026-05-05 18:42 59.21186 10.24606 1284 ft 105 kts 109°
2026-05-05 18:42 59.20755 10.25641 914 ft 99 kts 157°
2026-05-05 18:43 59.20096 10.25875 451 ft 95 kts 184°
2026-05-05 18:43 59.19522 10.25845 301 ft 69 kts 184°
2026-05-05 18:43 59.19129 10.25847 294 ft 45 kts 179°
2026-05-05 18:43 59.18865 10.25855 289 ft 33 kts 180°
2026-05-05 18:44 59.18627 10.25860 283 ft 32 kts 181°
2026-05-05 18:44 59.18518 10.25790 282 ft 8 kts 225°
2026-05-05 18:44 59.18501 10.25753 284 ft 0 kts 229°
2026-05-05 18:44 59.18496 10.25743 284 ft 0 kts 229°
2026-05-05 18:45 59.18489 10.25724 285 ft 1 kts 236°
2026-05-05 18:45 59.18447 10.25641 288 ft 3 kts 232°
2026-05-05 18:45 59.18457 10.25569 293 ft 7 kts 350°
2026-05-05 18:45 59.18478 10.25524 296 ft 3 kts 255°
2026-05-05 18:46 59.18469 10.25513 297 ft 0 kts 183°